Location: Dana
(41.8364°N, 106.7042°W)
Time: 14:27:22
(UTC+00:00)

Vanguard 3 - Pass Details

Date: 13 May 2026
Orbit: 507 x 3204 km, 33.3° (Epoch: 8 June)

Event Time Altitude Azimuth Distance (km) Brightness Sun altitude
Rises 00:51:25 0° 269° (W) 7,133 13.7 14.3°
Reaches altitude 10° 00:56:32 10° 267° (W) 6,000 13.4 13.3°
Maximum altitude 01:13:50 57° 196° (SSW) 2,703 10.0 10.2°
Drops below altitude 10° 01:24:43 10° 121° (ESE) 3,926 10.1 8.3°
Sets 01:27:21 0° 117° (ESE) 4,611 10.3 7.8°
